Time,TemperatureF,DewpointF,PressureIn,WindDirection,WindDirectionDegrees,WindSpeedMPH,WindSpeedGustMPH,Humidity,HourlyPrecipIn,Conditions,Clouds,dailyrainin,SolarRadiationWatts/m^2,SoftwareType,DateUTC
2013-05-27 00:03:00,60.0,46.0,-100.00,West,264,1.0,7.0,59,0.00,,,0.00,0.000000,,2013-05-27 04:03:00,
2013-05-27 00:10:00,59.0,46.0,-100.00,ENE,78,4.0,5.0,61,0.00,,,0.00,0.000000,,2013-05-27 04:10:00,
2013-05-27 00:33:00,59.0,46.0,-100.00,ENE,78,4.0,5.0,61,0.00,,,0.00,0.000000,,2013-05-27 04:33:00,
2013-05-27 00:43:00,59.0,46.0,-100.00,ENE,78,4.0,5.0,61,0.00,,,0.00,0.000000,,2013-05-27 04:43:00,
2013-05-27 00:53:00,59.0,46.0,-100.00,ENE,78,4.0,5.0,61,0.00,,,0.00,0.000000,,2013-05-27 04:53:00,
2013-05-27 01:02:00,59.0,46.0,-100.00,ENE,78,4.0,5.0,61,0.00,,,0.00,0.000000,,2013-05-27 05:02:00,
2013-05-27 01:10:00,58.0,47.0,-100.00,NE,50,4.0,6.0,67,0.00,,,0.00,0.000000,,2013-05-27 05:10:00,
2013-05-27 01:32:00,58.0,47.0,-100.00,NE,50,4.0,6.0,67,0.00,,,0.00,0.000000,,2013-05-27 05:32:00,
2013-05-27 01:42:00,58.0,47.0,-100.00,NE,50,4.0,6.0,67,0.00,,,0.00,0.000000,,2013-05-27 05:42:00,
2013-05-27 01:52:00,58.0,47.0,-100.00,NE,50,4.0,6.0,67,0.00,,,0.00,0.000000,,2013-05-27 05:52:00,
2013-05-27 02:02:00,58.0,47.0,-100.00,NE,50,4.0,6.0,67,0.00,,,0.00,0.000000,,2013-05-27 06:02:00,
2013-05-27 02:10:00,57.0,47.0,-100.00,NNE,18,4.0,6.0,69,0.00,,,0.00,0.000000,,2013-05-27 06:10:00,
2013-05-27 02:32:00,57.0,47.0,-100.00,NNE,18,4.0,6.0,69,0.00,,,0.00,0.000000,,2013-05-27 06:32:00,
2013-05-27 02:42:00,57.0,47.0,-100.00,NNE,18,4.0,6.0,69,0.00,,,0.00,0.000000,,2013-05-27 06:42:00,
2013-05-27 02:52:00,57.0,47.0,-100.00,NNE,18,4.0,6.0,69,0.00,,,0.00,0.000000,,2013-05-27 06:52:00,
2013-05-27 03:02:00,57.0,47.0,-100.00,NNE,18,4.0,6.0,69,0.00,,,0.00,0.000000,,2013-05-27 07:02:00,
2013-05-27 03:10:00,57.0,48.0,-100.00,NNE,20,4.0,7.0,72,0.00,,,0.00,0.000000,,2013-05-27 07:10:00,
2013-05-27 03:32:00,57.0,48.0,-100.00,NNE,20,4.0,7.0,72,0.00,,,0.00,0.000000,,2013-05-27 07:32:00,
2013-05-27 03:42:00,57.0,48.0,-100.00,NNE,20,4.0,7.0,72,0.00,,,0.00,0.000000,,2013-05-27 07:42:00,
2013-05-27 03:53:00,57.0,48.0,-100.00,NNE,20,4.0,7.0,72,0.00,,,0.00,0.000000,,2013-05-27 07:53:00,
2013-05-27 04:02:00,57.0,48.0,-100.00,NNE,20,4.0,7.0,72,0.00,,,0.00,0.000000,,2013-05-27 08:02:00,
2013-05-27 04:10:00,56.0,49.0,-100.00,NE,42,4.0,7.0,77,0.00,,,0.00,0.000000,,2013-05-27 08:10:00,
2013-05-27 04:33:00,56.0,49.0,-100.00,NE,42,4.0,7.0,77,0.00,,,0.00,0.000000,,2013-05-27 08:33:00,
2013-05-27 04:42:00,56.0,49.0,-100.00,NE,42,4.0,7.0,77,0.00,,,0.00,0.000000,,2013-05-27 08:42:00,
2013-05-27 04:52:00,56.0,49.0,-100.00,NE,42,4.0,7.0,77,0.00,,,0.00,0.000000,,2013-05-27 08:52:00,
2013-05-27 05:02:00,56.0,49.0,-100.00,NE,42,4.0,7.0,77,0.00,,,0.00,0.000000,,2013-05-27 09:02:00,
2013-05-27 05:10:00,57.0,42.0,-100.00,East,89,4.0,8.0,57,0.00,,,0.00,0.000000,,2013-05-27 09:10:00,
2013-05-27 05:33:00,57.0,42.0,-100.00,East,89,4.0,8.0,57,0.00,,,0.00,0.000000,,2013-05-27 09:33:00,
2013-05-27 05:42:00,57.0,42.0,-100.00,East,89,4.0,8.0,57,0.00,,,0.00,0.000000,,2013-05-27 09:42:00,
2013-05-27 05:53:00,57.0,42.0,-100.00,East,89,4.0,8.0,57,0.00,,,0.00,0.000000,,2013-05-27 09:53:00,
2013-05-27 06:03:00,57.0,42.0,-100.00,East,89,4.0,8.0,57,0.00,,,0.00,0.000000,,2013-05-27 10:03:00,
2013-05-27 06:10:00,56.0,46.0,-100.00,NNE,29,2.0,7.0,69,0.00,,,0.00,0.000000,,2013-05-27 10:10:00,
2013-05-27 06:32:00,56.0,46.0,-100.00,NNE,29,2.0,7.0,69,0.00,,,0.00,0.000000,,2013-05-27 10:32:00,
2013-05-27 06:42:00,56.0,46.0,-100.00,NNE,29,2.0,7.0,69,0.00,,,0.00,0.000000,,2013-05-27 10:42:00,
2013-05-27 06:53:00,56.0,46.0,-100.00,NNE,29,2.0,7.0,69,0.00,,,0.00,0.000000,,2013-05-27 10:53:00,
2013-05-27 07:02:00,56.0,46.0,-100.00,NNE,29,2.0,7.0,69,0.00,,,0.00,0.000000,,2013-05-27 11:02:00,
2013-05-27 07:10:00,56.0,49.0,-100.00,NNE,25,5.0,7.0,76,0.00,,,0.00,0.000000,,2013-05-27 11:10:00,
2013-05-27 07:32:00,56.0,49.0,-100.00,NNE,25,5.0,7.0,76,0.00,,,0.00,0.000000,,2013-05-27 11:32:00,
2013-05-27 07:42:00,56.0,49.0,-100.00,NNE,25,5.0,7.0,76,0.00,,,0.00,0.000000,,2013-05-27 11:42:00,
2013-05-27 07:52:00,56.0,49.0,-100.00,NNE,25,5.0,7.0,76,0.00,,,0.00,0.000000,,2013-05-27 11:52:00,
2013-05-27 08:02:00,56.0,49.0,-100.00,NNE,25,5.0,7.0,76,0.00,,,0.00,0.000000,,2013-05-27 12:02:00,
2013-05-27 08:10:00,59.0,44.0,-100.00,ENE,72,2.0,7.0,57,0.00,,,0.00,0.000000,,2013-05-27 12:10:00,
2013-05-27 08:32:00,59.0,44.0,-100.00,ENE,72,2.0,7.0,57,0.00,,,0.00,0.000000,,2013-05-27 12:32:00,
2013-05-27 08:42:00,59.0,44.0,-100.00,ENE,72,2.0,7.0,57,0.00,,,0.00,0.000000,,2013-05-27 12:42:00,
2013-05-27 08:52:00,59.0,44.0,-100.00,ENE,72,2.0,7.0,57,0.00,,,0.00,0.000000,,2013-05-27 12:52:00,
2013-05-27 09:02:00,59.0,44.0,-100.00,ENE,72,2.0,7.0,57,0.00,,,0.00,0.000000,,2013-05-27 13:02:00,
2013-05-27 09:10:00,64.0,48.0,-100.00,East,100,2.0,7.0,56,0.00,,,0.00,0.000000,,2013-05-27 13:10:00,
2013-05-27 09:32:00,64.0,48.0,-100.00,East,100,2.0,7.0,56,0.00,,,0.00,0.000000,,2013-05-27 13:32:00,
2013-05-27 09:42:00,64.0,48.0,-100.00,East,100,2.0,7.0,56,0.00,,,0.00,0.000000,,2013-05-27 13:42:00,
2013-05-27 09:53:00,64.0,48.0,-100.00,East,100,2.0,7.0,56,0.00,,,0.00,0.000000,,2013-05-27 13:53:00,
2013-05-27 10:02:00,64.0,48.0,-100.00,East,100,2.0,7.0,56,0.00,,,0.00,0.000000,,2013-05-27 14:02:00,
2013-05-27 10:10:00,70.0,50.0,-100.00,SW,227,2.0,8.0,49,0.00,,,0.00,0.000000,,2013-05-27 14:10:00,
2013-05-27 10:32:00,70.0,50.0,-100.00,SW,227,2.0,8.0,49,0.00,,,0.00,0.000000,,2013-05-27 14:32:00,
2013-05-27 10:42:00,70.0,50.0,-100.00,SW,227,2.0,8.0,49,0.00,,,0.00,0.000000,,2013-05-27 14:42:00,
2013-05-27 10:52:00,70.0,50.0,-100.00,SW,227,2.0,8.0,49,0.00,,,0.00,0.000000,,2013-05-27 14:52:00,
2013-05-27 11:02:00,70.0,50.0,-100.00,SW,227,2.0,8.0,49,0.00,,,0.00,0.000000,,2013-05-27 15:02:00,
2013-05-27 11:10:00,71.0,51.0,-100.00,SSW,202,4.0,9.0,50,0.00,,,0.00,0.000000,,2013-05-27 15:10:00,
2013-05-27 11:33:00,71.0,51.0,-100.00,SSW,202,4.0,9.0,50,0.00,,,0.00,0.000000,,2013-05-27 15:33:00,
2013-05-27 11:43:00,71.0,51.0,-100.00,SSW,202,4.0,9.0,50,0.00,,,0.00,0.000000,,2013-05-27 15:43:00,
2013-05-27 11:53:00,71.0,51.0,-100.00,SSW,202,4.0,9.0,50,0.00,,,0.00,0.000000,,2013-05-27 15:53:00,
2013-05-27 12:03:00,71.0,51.0,-100.00,SSW,202,4.0,9.0,50,0.00,,,0.00,0.000000,,2013-05-27 16:03:00,
2013-05-27 12:10:00,73.0,53.0,-100.00,SSW,194,6.0,15.0,50,0.00,,,0.00,0.000000,,2013-05-27 16:10:00,
2013-05-27 12:33:00,73.0,53.0,-100.00,SSW,194,6.0,15.0,50,0.00,,,0.00,0.000000,,2013-05-27 16:33:00,
2013-05-27 12:42:00,73.0,53.0,-100.00,SSW,194,6.0,15.0,50,0.00,,,0.00,0.000000,,2013-05-27 16:42:00,
2013-05-27 12:53:00,73.0,53.0,-100.00,SSW,194,6.0,15.0,50,0.00,,,0.00,0.000000,,2013-05-27 16:53:00,
2013-05-27 13:02:00,73.0,53.0,-100.00,SSW,194,6.0,15.0,50,0.00,,,0.00,0.000000,,2013-05-27 17:02:00,
2013-05-27 13:10:00,75.0,53.0,-100.00,SW,224,5.0,15.0,47,0.00,,,0.00,0.000000,,2013-05-27 17:10:00,
2013-05-27 13:32:00,75.0,53.0,-100.00,SW,224,5.0,15.0,47,0.00,,,0.00,0.000000,,2013-05-27 17:32:00,
2013-05-27 13:43:00,75.0,53.0,-100.00,SW,224,5.0,15.0,47,0.00,,,0.00,0.000000,,2013-05-27 17:43:00,
2013-05-27 13:52:00,75.0,53.0,-100.00,SW,224,5.0,15.0,47,0.00,,,0.00,0.000000,,2013-05-27 17:52:00,
2013-05-27 14:02:00,75.0,53.0,-100.00,SW,224,5.0,15.0,47,0.00,,,0.00,0.000000,,2013-05-27 18:02:00,
2013-05-27 14:10:00,77.0,54.0,-100.00,SSW,196,6.0,18.0,45,0.00,,,0.00,0.000000,,2013-05-27 18:10:00,
2013-05-27 14:32:00,77.0,54.0,-100.00,SSW,196,6.0,18.0,45,0.00,,,0.00,0.000000,,2013-05-27 18:32:00,
2013-05-27 14:42:00,77.0,54.0,-100.00,SSW,196,6.0,18.0,45,0.00,,,0.00,0.000000,,2013-05-27 18:42:00,
2013-05-27 14:52:00,77.0,54.0,-100.00,SSW,196,6.0,18.0,45,0.00,,,0.00,0.000000,,2013-05-27 18:52:00,
2013-05-27 15:01:00,77.0,54.0,-100.00,SSW,196,6.0,18.0,45,0.00,,,0.00,0.000000,,2013-05-27 19:01:00,
2013-05-27 15:10:00,77.0,55.0,-100.00,SSW,197,7.0,17.0,46,0.00,,,0.00,0.000000,,2013-05-27 19:10:00,
2013-05-27 15:32:00,77.0,55.0,-100.00,SSW,197,7.0,17.0,46,0.00,,,0.00,0.000000,,2013-05-27 19:32:00,
2013-05-27 15:42:00,77.0,55.0,-100.00,SSW,197,7.0,17.0,46,0.00,,,0.00,0.000000,,2013-05-27 19:42:00,
2013-05-27 15:52:00,77.0,55.0,-100.00,SSW,197,7.0,17.0,46,0.00,,,0.00,0.000000,,2013-05-27 19:52:00,
2013-05-27 16:02:00,77.0,55.0,-100.00,SSW,197,7.0,17.0,46,0.00,,,0.00,0.000000,,2013-05-27 20:02:00,
2013-05-27 16:10:00,77.0,55.0,-100.00,SSW,201,7.0,21.0,47,0.00,,,0.00,0.000000,,2013-05-27 20:10:00,
2013-05-27 16:32:00,77.0,55.0,-100.00,SSW,201,7.0,21.0,47,0.00,,,0.00,0.000000,,2013-05-27 20:32:00,
2013-05-27 16:42:00,77.0,55.0,-100.00,SSW,201,7.0,21.0,47,0.00,,,0.00,0.000000,,2013-05-27 20:42:00,
2013-05-27 16:53:00,77.0,55.0,-100.00,SSW,201,7.0,21.0,47,0.00,,,0.00,0.000000,,2013-05-27 20:53:00,
2013-05-27 17:01:00,77.0,55.0,-100.00,SSW,201,7.0,21.0,47,0.00,,,0.00,0.000000,,2013-05-27 21:01:00,
2013-05-27 17:10:00,78.0,57.0,-100.00,SSW,199,8.0,18.0,48,0.00,,,0.00,0.000000,,2013-05-27 21:10:00,
2013-05-27 17:33:00,78.0,57.0,-100.00,SSW,199,8.0,18.0,48,0.00,,,0.00,0.000000,,2013-05-27 21:33:00,
2013-05-27 17:43:00,78.0,57.0,-100.00,SSW,199,8.0,18.0,48,0.00,,,0.00,0.000000,,2013-05-27 21:43:00,
2013-05-27 17:53:00,78.0,57.0,-100.00,SSW,199,8.0,18.0,48,0.00,,,0.00,0.000000,,2013-05-27 21:53:00,
2013-05-27 18:03:00,78.0,57.0,-100.00,SSW,199,8.0,18.0,48,0.00,,,0.00,0.000000,,2013-05-27 22:03:00,
2013-05-27 18:10:00,76.0,55.0,-100.00,SSW,200,7.0,19.0,49,0.00,,,0.00,0.000000,,2013-05-27 22:10:00,
2013-05-27 18:33:00,76.0,55.0,-100.00,SSW,200,7.0,19.0,49,0.00,,,0.00,0.000000,,2013-05-27 22:33:00,
2013-05-27 18:42:00,76.0,55.0,-100.00,SSW,200,7.0,19.0,49,0.00,,,0.00,0.000000,,2013-05-27 22:42:00,
2013-05-27 18:53:00,76.0,55.0,-100.00,SSW,200,7.0,19.0,49,0.00,,,0.00,0.000000,,2013-05-27 22:53:00,
2013-05-27 19:02:00,76.0,55.0,-100.00,SSW,200,7.0,19.0,49,0.00,,,0.00,0.000000,,2013-05-27 23:02:00,
2013-05-27 19:10:00,73.0,56.0,-100.00,SSW,204,9.0,15.0,55,0.00,,,0.00,0.000000,,2013-05-27 23:10:00,
2013-05-27 19:32:00,73.0,56.0,-100.00,SSW,204,9.0,15.0,55,0.00,,,0.00,0.000000,,2013-05-27 23:32:00,
2013-05-27 19:42:00,73.0,56.0,-100.00,SSW,204,9.0,15.0,55,0.00,,,0.00,0.000000,,2013-05-27 23:42:00,
2013-05-27 19:52:00,73.0,56.0,-100.00,SSW,204,9.0,15.0,55,0.00,,,0.00,0.000000,,2013-05-27 23:52:00,
2013-05-27 20:01:00,73.0,56.0,-100.00,SSW,204,9.0,15.0,55,0.00,,,0.00,0.000000,,2013-05-28 00:01:00,
2013-05-27 21:10:00,68.0,56.0,-100.00,SSW,207,5.0,16.0,66,-99.99,,,0.00,0.000000,,2013-05-28 01:10:00,
2013-05-27 21:32:00,68.0,56.0,-100.00,SSW,207,5.0,16.0,66,-99.99,,,0.00,0.000000,,2013-05-28 01:32:00,
2013-05-27 21:42:00,68.0,56.0,-100.00,SSW,207,5.0,16.0,66,-99.99,,,0.00,0.000000,,2013-05-28 01:42:00,
2013-05-27 21:52:00,68.0,56.0,-100.00,SSW,207,5.0,16.0,66,-99.99,,,0.00,0.000000,,2013-05-28 01:52:00,
2013-05-27 22:02:00,68.0,56.0,-100.00,SSW,207,5.0,16.0,66,-99.99,,,0.00,0.000000,,2013-05-28 02:02:00,
2013-05-27 22:10:00,67.0,56.0,-100.00,SW,220,4.0,11.0,69,0.00,,,0.00,0.000000,,2013-05-28 02:10:00,
2013-05-27 22:32:00,67.0,56.0,-100.00,SW,220,4.0,11.0,69,0.00,,,0.00,0.000000,,2013-05-28 02:32:00,
2013-05-27 22:42:00,67.0,56.0,-100.00,SW,220,4.0,11.0,69,0.00,,,0.00,0.000000,,2013-05-28 02:42:00,
2013-05-27 22:52:00,67.0,56.0,-100.00,SW,220,4.0,11.0,69,0.00,,,0.00,0.000000,,2013-05-28 02:52:00,
2013-05-27 23:01:00,67.0,56.0,-100.00,SW,220,4.0,11.0,69,0.00,,,0.00,0.000000,,2013-05-28 03:01:00,
2013-05-27 23:10:00,66.0,55.0,-100.00,SSW,213,5.0,12.0,68,0.00,,,0.00,0.000000,,2013-05-28 03:10:00,
2013-05-27 23:33:00,66.0,55.0,-100.00,SSW,213,5.0,12.0,68,0.00,,,0.00,0.000000,,2013-05-28 03:33:00,
2013-05-27 23:43:00,66.0,55.0,-100.00,SSW,213,5.0,12.0,68,0.00,,,0.00,0.000000,,2013-05-28 03:43:00,
2013-05-27 23:53:00,66.0,55.0,-100.00,SSW,213,5.0,12.0,68,0.00,,,0.00,0.000000,,2013-05-28 03:53:00,